Weather History for Valentine, NE

Change the Weather History Date:

Tuesday, October 25, 2011

  Actual Average Record
Temperature  
Mean Temperature 45 °F 45 °F  
Max Temperature 52 °F 59 °F 86 °F (1940)
Min Temperature 38 °F 31 °F 13 °F (1962)
Degree Days  
Heating Degree Days 20 20  
Month to date heating degree days 292 388  
Since 1 July heating degree days 476 573  
Cooling Degree Days 0 0  
Month to date cooling degree days 21 1  
Year to date cooling degree days 912 818  
Moisture  
Dew Point 36 °F    
Average Humidity 75    
Maximum Humidity 92    
Minimum Humidity 57    
Precipitation  
Precipitation 0.00 in 0.04 in 1.42 in (1897)
Month to date precipitation 1.71 1.07  
Year to date precipitation 21.35 18.82  
Snow  
Snow 0.00 in 0.10 in 3.00 in (1997)
Month to date snowfall 0.0 1.0  
Since 1 July snowfall 0.0 1.7  
Since 1 September snowfall 0.0 1.7  
Snow Depth 0.00 in    
Sea Level Pressure  
Sea Level Pressure 29.99 in    
Wind  
Wind Speed 13 mph (NNW)    
Max Wind Speed 24 mph    
Max Gust Speed 35 mph    
Visibility 10 miles    
Events      
T = Trace of Precipitation, MM = Missing Value Source: NWS Daily Summary

Daily Weather History Graph

Daily Weather History Graph

Search for Another Location

Airport:

Trip Planner

Search our weather history database for the weather conditions in past years. The results will help you decide how hot, cold, wet, or windy it might be!

Date:

Astronomy

Oct. 25, 2011 Rise Set
Actual Time 8:07 AM CDT 6:44 PM CDT
Civil Twilight 7:38 AM CDT 7:13 PM CDT
Nautical Twilight 7:05 AM CDT 7:46 PM CDT
Astronomical Twilight 6:32 AM CDT 8:19 PM CDT
Moon 6:41 AM CDT (10/25) 5:47 PM CDT (10/25)
Length of Visible Light 11h 35m
Length of Day
10h 37m
Waning Crescent, 2% of the Moon is Illuminated
Oct 25
Waning Crescent
Oct 26
New
Nov 2
First Quarter
Nov 10
Full
Nov 18
Last Quarter

Hourly Weather History & Observations

Time (CDT) Temp. Windchill Dew Point Humidity Pressure Visibility Wind Dir Wind Speed Gust Speed Precip Events Conditions
12:52 AM 42.1 °F - 37.9 °F 85% 29.74 in 10.0 mi Calm Calm - N/A   Clear
1:52 AM 41.0 °F - 37.9 °F 89% 29.73 in 10.0 mi Calm Calm - N/A   Clear
2:52 AM 43.0 °F 37.7 °F 39.0 °F 86% 29.74 in 10.0 mi NNW 9.2 mph - N/A   Clear
3:52 AM 42.1 °F 36.1 °F 34.0 °F 73% 29.77 in 10.0 mi NNW 10.4 mph - N/A   Clear
4:52 AM 39.9 °F 32.5 °F 33.1 °F 77% 29.81 in 10.0 mi NNW 12.7 mph - N/A   Clear
5:52 AM 37.9 °F 29.2 °F 35.1 °F 89% 29.86 in 10.0 mi NW 15.0 mph - N/A   Clear
6:40 AM 37.4 °F 29.3 °F 35.6 °F 93% 29.87 in 10.0 mi NW 12.7 mph - N/A   Scattered Clouds
6:49 AM 39.2 °F 32.5 °F 35.6 °F 87% 29.87 in 10.0 mi NW 10.4 mph - N/A   Mostly Cloudy
6:52 AM 39.0 °F 31.8 °F 36.0 °F 89% 29.89 in 10.0 mi NW 11.5 mph - N/A   Mostly Cloudy
7:43 AM 41.0 °F 33.1 °F 37.4 °F 87% 29.90 in 10.0 mi NW 15.0 mph 23.0 mph N/A   Overcast
7:52 AM 41.0 °F 32.8 °F 37.9 °F 89% 29.93 in 9.0 mi NW 16.1 mph - N/A   Overcast
8:28 AM 41.0 °F 33.9 °F 37.4 °F 87% 29.91 in 9.0 mi NNW 12.7 mph 20.7 mph N/A   Overcast
8:52 AM 42.1 °F 34.9 °F 37.9 °F 85% 29.96 in 9.0 mi NW 13.8 mph - N/A   Overcast
9:52 AM 42.1 °F 32.8 °F 37.9 °F 85% 30.00 in 8.0 mi NNW 21.9 mph 28.8 mph N/A   Overcast
10:52 AM 42.1 °F 32.6 °F 37.9 °F 85% 30.03 in 9.0 mi NNW 23.0 mph 27.6 mph N/A   Overcast
11:32 AM 42.8 °F 34.5 °F 37.4 °F 81% 30.01 in 10.0 mi NNW 18.4 mph 24.2 mph N/A   Overcast
11:52 AM 44.1 °F 36.2 °F 37.9 °F 79% 30.05 in 10.0 mi NW 18.4 mph 25.3 mph N/A   Overcast
12:34 PM 46.4 °F 38.5 °F 37.4 °F 71% 30.02 in 10.0 mi NNW 21.9 mph 31.1 mph N/A   Overcast
12:52 PM 48.0 °F - 37.9 °F 68% 30.06 in 10.0 mi NNW 23.0 mph 32.2 mph N/A   Overcast
1:42 PM 51.8 °F - 37.4 °F 58% 30.02 in 10.0 mi NNW 23.0 mph 28.8 mph N/A   Overcast
1:52 PM 51.1 °F - 37.9 °F 61% 30.05 in 10.0 mi North 17.3 mph 28.8 mph N/A   Mostly Cloudy
2:52 PM 50.0 °F - 37.0 °F 61% 30.06 in 10.0 mi North 17.3 mph 27.6 mph N/A   Overcast
3:52 PM 50.0 °F - 37.0 °F 61% 30.08 in 10.0 mi North 13.8 mph 24.2 mph N/A   Overcast
4:52 PM 50.0 °F - 37.0 °F 61% 30.10 in 10.0 mi North 10.4 mph 20.7 mph N/A   Overcast
5:52 PM 50.0 °F - 37.0 °F 61% 30.11 in 10.0 mi North 13.8 mph - N/A   Partly Cloudy
6:52 PM 46.9 °F - 36.0 °F 66% 30.14 in 10.0 mi North 8.1 mph - N/A   Clear
7:52 PM 46.0 °F 41.9 °F 36.0 °F 68% 30.16 in 10.0 mi North 8.1 mph - N/A   Partly Cloudy
8:52 PM 45.0 °F 40.6 °F 36.0 °F 71% 30.18 in 10.0 mi NW 8.1 mph - N/A   Clear
9:52 PM 44.1 °F 42.5 °F 35.1 °F 71% 30.18 in 10.0 mi NW 3.5 mph - N/A   Clear
10:52 PM 43.0 °F 37.7 °F 34.0 °F 71% 30.20 in 10.0 mi NW 9.2 mph - N/A   Clear
11:52 PM 42.1 °F 34.9 °F 28.0 °F 58% 30.23 in 10.0 mi NNW 13.8 mph 19.6 mph N/A   Clear